Home > Weather > Laredo > Past weeks

Flag for U.S.A. Weather for the Past 2 Weeks in Laredo, Texas, U.S.A.

Now
57 °F

Clear.


Feels Like: 55 °F
Forecast: 52 / 85 °F
Wind: 8 mph from Southeast

Location: Laredo International Airport

Current Time: Feb 12, 2016 at 2:34:41 AM

Latest Report: Feb 12, 2016 at 1:56 AM


Visibility: 10 mi

Pressure: 30.14 "Hg

Humidity: 74%

Dew point: 49 °F

Location of LaredoLocation

Historic Weather in Laredo — Graph

°F

Laredo Temperature Yesterday

Maximum temperature yesterday: 84 °F (at 2:56 PM)
Minimum temperature yesterday: 48 °F (at 5:56 AM)
Average temperature yesterday: 65 °F

High & Low Weather Summary for the Past Weeks

 TemperatureHumidityPressure
High92 °F (Feb 1, 3:56 PM)96% (Jan 31, 7:56 AM)30.56 "Hg (Jan 31, 7:56 AM)
Low36 °F (Feb 4, 6:56 AM)13% (Jan 31, 4:56 PM)29.49 "Hg (Feb 1, 5:56 PM)
Average59 °F42%30.16 "Hg
* Reported Jan 28 12:56 AM — Feb 12 12:56 AM, Laredo, Weather by CustomWeather, © 2016

Note: Actual official high and low records may vary slightly from our data, if they occured in-between our weather recording intervals... More about our weather records

Advertising

Laredo Weather History for the Previous 24 Hours

 ConditionsComfort  
Time TempWeatherWind HumidityBarometerVisibility
12:56 AM
Fri, Feb 12
57 °FClear.8 mph72%30.15 "Hg10 mi
11:56 PM
Thu, Feb 11
61 °FClear.9 mph62%30.15 "Hg10 mi
10:56 PM64 °FClear.12 mph56%30.15 "Hg10 mi
9:56 PM64 °FClear.12 mph45%30.16 "Hg10 mi
8:56 PM64 °FClear.9 mph35%30.16 "Hg10 mi
7:56 PM70 °FClear.3 mph28%30.14 "Hg10 mi
6:56 PM71 °FClear.6 mph27%30.13 "Hg10 mi
5:56 PM80 °FSunny.10 mph20%30.10 "Hg10 mi
4:56 PM84 °FSunny.10 mph16%30.08 "Hg10 mi
2:56 PM84 °FSunny.9 mph17%30.09 "Hg10 mi
1:56 PM83 °FSunny.9 mph19%30.11 "Hg10 mi
12:56 PM80 °FSunny.9 mph22%30.15 "Hg10 mi
10:56 AM72 °FSunny.9 mph31%30.20 "Hg10 mi
9:56 AM65 °FSunny.N/A40%30.21 "Hg10 mi
8:56 AM58 °FSunny.6 mph47%30.21 "Hg10 mi
7:56 AM50 °FSunny.6 mph63%30.20 "Hg10 mi
6:56 AM48 °FClear.7 mph66%30.20 "Hg10 mi
5:56 AM48 °FClear.7 mph63%30.18 "Hg10 mi
4:56 AM53 °FClear.9 mph51%30.18 "Hg10 mi
3:56 AM54 °FClear.10 mph47%30.18 "Hg10 mi
2:56 AM56 °FClear.10 mph42%30.18 "Hg10 mi
Weather by CustomWeather, © 2016

See weather overviewHow to use our weather pages